DMSP 5D-2 F13 DEB

Satellite information

Favourite Embed

Satellite Type and Status

DEBRISIN ORBIT

Key statistics

Satellite DMSP 5D-2 F13 DEB at a glance.

Uptime

11004

Days in orbit

Revolutions

≈ 14.4

Per day

Orbit

SSO

Sun Synchronous Orbit

Inclination

98.7

Latest

Satellite identification and parameters

Extended collection of information and parameters for DMSP 5D-2 F13 DEB.

Object identification

Identified? True

Debris? True

Object name: DMSP 5D-2 F13 DEB

International designator: 1995-015EY

Object number (NORAD): 40601

Object ID (CCSDS): 40601

Country: UNITED STATES OF AMERICA (US)

Current information (Y/N): Y

RCS size: SMALL

Orbital parameters

Period: 99.922 minutes

Inclination: 98.6599 deg

SMA: 7132.944 km

Apoapsis: 759.839 km

Periapsis: 749.779 km

RAAN: 165.5616 deg

Eccentricy: 0.0007052

Argument of periapsis: 359.7749 deg

Mean anomaly: 0.3435 deg

Mean motion: 14.41117938 rev/day

Mean motion (dot): 0.00006214 rev/day2

B* drag term: 0.0019408 1/REarth

Two-line elements (TLE)

Creation date: May 8, 2025, 3:01 a.m.

Reference frame: TEME

Reference center: EARTH

Epoch: May 7, 2025, 9:40 p.m. UTC

TLE line 0: 0 DMSP 5D-2 F13 DEB

TLE line 1: 1 40601U 95015EY 25127.90296075 .00006214 00000-0 19408-2 0 9993

TLE line 2: 2 40601 98.6599 165.5616 0007052 359.7749 0.3435 14.41117938521773

Live tracking on map

Real-time ground track for satellite DMSP 5D-2 F13 DEB.

In-orbit conjunctions

A list of the most updated potential collisions computed for object DMSP 5D-2 F13 DEB.

Target Orbit TCA Probability of collision Miss distance Type
CZ-6A DEB LEO 2024-11-30 20:13:20 0.0001117217 886.0 (m) DEBRIS
FENGYUN 1C DEB SSO 2024-11-10 23:54:52 0.0001971166 535.0 (m) DEBRIS
COSMOS 1777 LEO 2024-06-05 18:44:37 0.0001776459 422.0 (m) PAYLOAD

Associated space launch

Military meteorological satellite

DMSP 5D-2 F13 DEB was lifted into orbit during the mission ‘Atlas E | DMSP-5D2 F13’, on board a Atlas E space rocket.

The launch took place on March 24, 1995, 2:05 p.m. from Space Launch Complex 3W.

For more information about the launch, click the button.

Launch to space Atlas E | DMSP-5D2 F13
Atlas E | DMSP-5D2 F13

Agency: N/A

Status: Launch Successful

Launch date: March 24, 1995, 2:05 p.m. UTC

Rocket: Atlas E

Launch pad: Space Launch Complex 3W

Location: Vandenberg SFB, CA, USA

...

Latest news about this satellite

There are no fresh news available about this satellite. Check back as we update our databases every day.


Newsletter sign-up

Weekly statistics, charts and insights to help you stay on top of the space industry.